[[{"header":{"parameterUnit":"m.s-1","parameterCategory":1,"la1":30.2991,"la2":30.254,"lo1":-89.0895,"lo2":-89.0444,"dy":0.0017,"dx":0.0017,"nx":28,"ny":28,"refTime":"2024-03-31T03:00:00:Z","depth":0,"parameterNumber":2,"parameterNumberName":"U-component_of_WINDS"},"data":[0,0,0,0,0,0,0,0,0,0,0,0,0,0,0,0,0,0,0,0,0,0,0,0,0,0,0,0,0,0,0,0,0,0,0,0,0,0,0,0,0,0,0,0,0,0,0,0,0,0,0,0,0,0,0,0,0,0,-1.1617,-1.1618,0,-1.1671,-1.1672,-1.1672,-1.1695,-1.1695,-1.1695,-1.1695,-1.1752,-1.1754,-1.1756,0,0,0,0,0,0,0,0,0,0,0,0,0,-1.1535,-1.1537,-1.1617,-1.1618,-1.1618,-1.1671,-1.1672,-1.1673,-1.1695,-1.1695,-1.1695,-1.1695,-1.1752,-1.1754,-1.1756,0,0,0,0,0,0,0,0,0,0,0,0,0,-1.1578,-1.1537,-1.1617,-1.1636,-1.1638,-1.1671,-1.1672,-1.1673,-1.1695,-1.1695,-1.1695,-1.1695,-1.1751,-1.1754,-1.1756,-1.1775,0,0,-1.1764,-1.1765,0,0,0,0,0,0,0,0,-1.1576,-1.1581,-1.1632,-1.1635,-1.1637,-1.1676,-1.1664,-1.1707,-1.1695,-1.1674,-1.1695,-1.1695,-1.1727,-1.1732,-1.1742,-1.1777,-1.178,-1.1764,-1.1765,-1.1766,-1.1767,0,0,0,0,0,0,0,-1.1573,-1.1579,-1.1639,-1.1633,-1.1636,-1.1643,-1.1648,-1.1673,-1.1701,-1.1676,-1.1677,-1.1683,-1.1729,-1.174,-1.1744,-1.1781,-1.1764,-1.1766,-1.1767,-1.1768,-1.1834,-1.1835,0,0,0,0,0,0,-1.1567,-1.1577,-1.1637,-1.164,-1.1605,-1.1644,-1.1651,-1.1664,-1.1701,-1.1706,-1.1683,-1.1684,-1.1736,-1.1741,-1.1746,-1.177,-1.1766,-1.1769,-1.177,-1.1834,-1.1834,-1.1835,0,0,0,0,0,0,-1.1565,-1.1572,-1.1635,-1.1609,-1.1617,-1.1646,-1.166,-1.1665,-1.1676,-1.1707,-1.1712,-1.1689,-1.1736,-1.1743,-1.1767,-1.1773,-1.177,-1.1772,-1.1834,-1.1834,-1.1834,-1.1819,0,0,0,0,0,0,-1.1562,-1.1571,-1.1578,-1.1609,-1.1619,-1.1654,-1.1661,-1.1666,-1.168,-1.1682,-1.1714,-1.1719,-1.1736,-1.1764,-1.177,-1.1776,-1.1774,-1.1833,-1.1834,-1.1834,-1.1819,-1.1819,-1.1819,0,0,0,0,0,-1.1559,-1.1572,-1.1578,-1.1585,-1.1628,-1.1654,-1.166,-1.1679,-1.1681,-1.1688,-1.1708,-1.1718,-1.1771,-1.1766,-1.1773,-1.178,-1.1833,-1.1834,-1.1834,-1.1819,-1.1819,-1.1819,0,0,0,0,0,0,-1.1541,-1.1576,-1.1583,-1.1606,-1.1627,-1.1658,-1.1668,-1.1678,-1.17,-1.1701,-1.1724,-1.1731,-1.1754,-1.177,-1.1763,-1.18,-1.1803,-1.1805,-1.1789,-1.1789,-1.1789,-1.1784,-1.1776,0,0,0,0,0,-1.1539,-1.1558,-1.1588,-1.1605,-1.1615,-1.164,-1.1652,-1.1665,-1.1688,-1.1697,-1.1719,-1.1741,-1.1763,-1.1777,-1.1799,-1.1822,-1.1829,-1.183,-1.183,-1.1829,-1.1831,-1.1845,-1.1846,-1.1837,-1.1837,-1.1837,0,0,-1.1537,-1.1558,-1.1568,-1.1602,-1.1619,-1.1638,-1.1647,-1.1667,-1.1681,-1.1701,-1.1725,-1.1741,-1.1768,-1.1792,-1.1804,-1.1806,-1.1835,-1.183,-1.183,-1.1832,-1.1845,-1.1846,-1.1847,-1.1837,-1.1837,-1.1837,0,0,-1.1542,-1.1559,-1.1576,-1.1593,-1.162,-1.1636,-1.164,-1.167,-1.1681,-1.1706,-1.1721,-1.1739,-1.1776,-1.1795,-1.1809,-1.1821,-1.1832,-1.1828,-1.1826,-1.1839,-1.184,-1.184,-1.1845,-1.1846,-1.1829,-1.1829,-1.1829,0,-1.1535,-1.1563,-1.1583,-1.1602,-1.1616,-1.1634,-1.1651,-1.1667,-1.17,-1.171,-1.1712,-1.1759,-1.1778,-1.1807,-1.1809,-1.182,-1.1826,-1.1824,-1.1838,-1.1839,-1.184,-1.1844,-1.1846,-1.1828,-1.1828,-1.1828,-1.1829,0,-1.1554,-1.1574,-1.1584,-1.1614,-1.163,-1.1648,-1.167,-1.1684,-1.1696,-1.1712,-1.1738,-1.1761,-1.1788,-1.1796,-1.1808,-1.1827,-1.1827,-1.1833,-1.1836,-1.184,-1.1844,-1.1846,-1.1827,-1.1828,-1.1828,-1.1828,0,0,-1.1549,-1.159,-1.1593,-1.1607,-1.1638,-1.1654,-1.1673,-1.1698,-1.171,-1.1732,-1.1749,-1.178,-1.1785,-1.1802,-1.1816,-1.1827,-1.1835,-1.1832,-1.1833,-1.1832,-1.1858,-1.1853,-1.1855,-1.1843,-1.1843,-1.1843,-1.1856,0,-1.1558,-1.1592,-1.161,-1.1636,-1.1655,-1.1672,-1.1689,-1.171,-1.1726,-1.1744,-1.1763,-1.1784,-1.179,-1.18,-1.1812,-1.1832,-1.1841,-1.1831,-1.1859,-1.186,-1.1852,-1.1857,-1.1852,-1.1863,-1.1858,-1.1858,-1.1858,0,-1.1573,-1.1594,-1.1622,-1.165,-1.1659,-1.1673,-1.1699,-1.1716,-1.1741,-1.1752,-1.177,-1.1784,-1.1805,-1.1806,-1.1837,-1.183,-1.1842,-1.1854,-1.1855,-1.1858,-1.1859,-1.1861,-1.1867,-1.1868,-1.1861,-1.1861,-1.1861,0,-1.1567,-1.1602,-1.1623,-1.1635,-1.1668,-1.1678,-1.1693,-1.1717,-1.1732,-1.1754,-1.1764,-1.1788,-1.1802,-1.1821,-1.1842,-1.1841,-1.187,-1.1873,-1.1881,-1.188,-1.1886,-1.1885,-1.1894,-1.1894,-1.1894,-1.1894,-1.1894,0,-1.1575,-1.1591,-1.1621,-1.1634,-1.1653,-1.1674,-1.1693,-1.1709,-1.173,-1.1748,-1.1764,-1.178,-1.1806,-1.1826,-1.1842,-1.1865,-1.1871,-1.1881,-1.1885,-1.188,-1.1878,-1.1888,-1.1888,-1.1894,-1.1894,-1.1894,-1.1894,0,-1.1571,-1.1591,-1.1615,-1.1645,-1.1653,-1.1666,-1.1692,-1.1706,-1.1723,-1.1744,-1.1751,-1.1777,-1.1801,-1.1823,-1.1856,-1.1867,-1.189,-1.1895,-1.1881,-1.1883,-1.1889,-1.1888,-1.1904,-1.1908,-1.1905,-1.1905,-1.1905,0,-1.1575,-1.1588,-1.1619,-1.1631,-1.1645,-1.1665,-1.1679,-1.17,-1.1715,-1.1744,-1.1755,-1.1779,-1.18,-1.1838,-1.1861,-1.1885,-1.1892,-1.1896,-1.1896,-1.1889,-1.1892,-1.1891,-1.1893,-1.1895,-1.1895,-1.1895,-1.1895,0,-1.158,-1.1589,-1.1609,-1.1632,-1.1648,-1.1668,-1.1688,-1.1698,-1.1723,-1.1739,-1.1763,-1.1779,-1.1812,-1.1836,-1.1864,-1.188,-1.1892,-1.1895,-1.1898,-1.1892,-1.1884,-1.1888,-1.188,-1.1894,-1.1894,-1.1894,-1.1894,-1.1894,-1.158,-1.1592,-1.1616,-1.1637,-1.1655,-1.1673,-1.1687,-1.1706,-1.1726,-1.1753,-1.1765,-1.1789,-1.1814,-1.1852,-1.1868,-1.1888,-1.1891,-1.1895,-1.1896,-1.1897,-1.1896,-1.188,-1.1893,-1.1893,-1.1894,-1.1894,-1.1894,0,-1.1586,-1.1602,-1.1621,-1.1648,-1.1665,-1.1674,-1.1697,-1.1711,-1.1732,-1.1754,-1.1774,-1.1802,-1.1826,-1.1851,-1.1876,-1.1888,-1.1894,-1.1894,-1.1893,-1.1897,-1.1892,-1.1887,-1.1888,-1.1888,-1.1888,-1.1888,-1.1888,-1.1888,-1.1591,-1.1612,-1.1624,-1.1654,-1.1671,-1.1694,-1.1706,-1.1724,-1.1741,-1.1771,-1.1791,-1.1806,-1.1829,-1.1857,-1.188,-1.1886,-1.1895,-1.1894,-1.1902,-1.1897,-1.1897,-1.1897,-1.1893,-1.1895,-1.1895,-1.1905,-1.1905,-1.1905]},{"header":{"parameterUnit":"m.s-1","parameterCategory":1,"la1":30.2991,"la2":30.254,"lo1":-89.0895,"lo2":-89.0444,"dy":0.0017,"dx":0.0017,"nx":28,"ny":28,"refTime":"2024-03-31T03:00:00:Z","depth":0,"parameterNumber":3,"parameterNumberName":"V-component_of_WINDS"},"data":[0,0,0,0,0,0,0,0,0,0,0,0,0,0,0,0,0,0,0,0,0,0,0,0,0,0,0,0,0,0,0,0,0,0,0,0,0,0,0,0,0,0,0,0,0,0,0,0,0,0,0,0,0,0,0,0,0,0,4.9399,4.9399,0,4.9408,4.9408,4.9408,4.9332,4.933,4.9328,4.9326,4.9334,4.9336,4.9338,0,0,0,0,0,0,0,0,0,0,0,0,0,4.9315,4.9317,4.9399,4.9399,4.9399,4.9408,4.9408,4.9408,4.9332,4.933,4.9327,4.9325,4.9333,4.9336,4.9338,0,0,0,0,0,0,0,0,0,0,0,0,0,4.934,4.9317,4.9399,4.9363,4.9359,4.9408,4.9408,4.9408,4.9333,4.933,4.9327,4.9324,4.9332,4.9336,4.9339,4.9422,0,0,4.9349,4.935,0,0,0,0,0,0,0,0,4.9339,4.9343,4.9368,4.9365,4.9362,4.9366,4.9381,4.9413,4.9334,4.9343,4.9326,4.9322,4.9347,4.9349,4.9357,4.9423,4.9423,4.9349,4.9351,4.9353,4.9353,0,0,0,0,0,0,0,4.9337,4.9343,4.9402,4.9368,4.9364,4.9345,4.9345,4.9387,4.9363,4.9342,4.9336,4.9339,4.9345,4.9355,4.9357,4.9423,4.9349,4.9352,4.9354,4.9355,4.9558,4.9561,0,0,0,0,0,0,4.9341,4.9342,4.9402,4.9403,4.9342,4.9349,4.9349,4.9368,4.9362,4.9358,4.9341,4.9335,4.935,4.9353,4.9357,4.9455,4.9353,4.9356,4.9357,4.9555,4.9559,4.9562,0,0,0,0,0,0,4.9339,4.9347,4.9402,4.9371,4.9376,4.9354,4.9375,4.9369,4.9379,4.9361,4.9357,4.9356,4.9348,4.9353,4.9407,4.9455,4.9357,4.936,4.9551,4.9556,4.9561,4.9652,0,0,0,0,0,0,4.9337,4.9347,4.9379,4.9372,4.9378,4.9452,4.9378,4.9372,4.9385,4.9377,4.9374,4.937,4.9346,4.9402,4.941,4.9457,4.9363,4.9546,4.9553,4.9559,4.9645,4.966,4.9673,0,0,0,0,0,4.9334,4.9404,4.9381,4.9388,4.9418,4.9455,4.9459,4.9429,4.9389,4.9421,4.941,4.937,4.9448,4.9409,4.9417,4.9466,4.9543,4.9551,4.9558,4.9639,4.9657,4.9673,0,0,0,0,0,0,4.9416,4.9402,4.9376,4.9446,4.9452,4.9442,4.9481,4.945,4.9467,4.9459,4.9421,4.9421,4.9482,4.9479,4.9436,4.9546,4.9488,4.9498,4.9547,4.9564,4.9578,4.9578,4.9365,0,0,0,0,0,4.9442,4.9474,4.946,4.9523,4.9527,4.9504,4.9519,4.9496,4.9501,4.9503,4.9496,4.9502,4.9527,4.9545,4.9568,4.9644,4.9642,4.9681,4.9695,4.9706,4.9716,4.9757,4.9774,4.9588,4.9588,4.9588,0,0,4.9497,4.9493,4.9515,4.9539,4.9541,4.9575,4.9507,4.9545,4.957,4.9509,4.956,4.9555,4.9559,4.9625,4.9654,4.9624,4.9767,4.9716,4.9726,4.9729,4.9766,4.9784,4.98,4.9593,4.9592,4.9591,0,0,4.9613,4.9614,4.9666,4.967,4.9674,4.9658,4.9671,4.9666,4.966,4.9711,4.9666,4.9694,4.9739,4.9744,4.9753,4.9871,4.9836,4.9879,4.9953,4.9993,5.0008,5.002,5.0064,5.008,4.9888,4.9889,4.9889,0,4.9681,4.973,4.9697,4.9739,4.9751,4.9697,4.975,4.9755,4.9767,4.9776,4.9743,4.9798,4.9797,4.9864,4.9893,4.9901,4.9914,4.988,5.0008,5.0021,5.0032,5.0073,5.009,4.9894,4.9893,4.9893,4.9892,0,4.9813,4.9848,4.989,4.9903,4.9919,4.9966,4.994,4.9961,4.9936,4.9923,4.9976,4.9973,4.9994,5.0008,4.9984,5.0071,5.0053,5.0015,4.9956,5.0056,5.0094,5.0109,4.9902,4.99,4.9898,4.9897,0,0,4.9983,4.9977,4.9993,4.9999,4.9999,5.0026,5.007,5.0091,5.011,5.0119,5.0156,5.0195,5.0159,5.0169,5.0145,5.018,5.0275,5.0137,5.0136,5.0164,5.0373,5.0403,5.0422,5.0251,5.0254,5.0256,5.0373,0,5.0098,5.0175,5.0146,5.0225,5.0257,5.0206,5.0245,5.0249,5.0238,5.0264,5.0251,5.028,5.023,5.0236,5.0268,5.0257,5.0317,5.0248,5.0286,5.0288,5.0288,5.0441,5.0474,5.0584,5.0387,5.039,5.0392,0,5.0243,5.0259,5.0341,5.0336,5.0349,5.0384,5.0402,5.0426,5.043,5.042,5.0431,5.0399,5.0442,5.0382,5.0441,5.0395,5.0409,5.0405,5.0409,5.0413,5.0347,5.0451,5.0618,5.0636,5.0414,5.0413,5.0411,0,5.0361,5.0402,5.0457,5.0463,5.0459,5.0485,5.0484,5.0485,5.0499,5.0514,5.0523,5.0543,5.0554,5.0569,5.0544,5.0502,5.0607,5.0545,5.06,5.0601,5.0626,5.0625,5.08,5.0632,5.0632,5.0632,5.0631,0,5.0493,5.0546,5.051,5.0544,5.0601,5.0567,5.0625,5.0618,5.0619,5.0651,5.0607,5.0637,5.0601,5.0628,5.0607,5.066,5.0665,5.0658,5.0653,5.0663,5.0665,5.0673,5.0665,5.0636,5.0635,5.0634,5.0634,0,5.0635,5.0613,5.067,5.0661,5.066,5.0703,5.0695,5.0726,5.0711,5.0752,5.0759,5.0737,5.0766,5.0742,5.077,5.0757,5.0827,5.081,5.0827,5.0822,5.088,5.0876,5.1067,5.1091,5.0907,5.0909,5.091,0,5.0722,5.0762,5.0757,5.0775,5.0778,5.0807,5.0822,5.0789,5.0807,5.0814,5.0844,5.087,5.0889,5.0938,5.0925,5.0946,5.093,5.0996,5.0933,5.0943,5.0933,5.0932,5.0936,5.1009,5.1011,5.1013,5.1014,0,5.088,5.0867,5.089,5.091,5.0929,5.0943,5.0953,5.097,5.0937,5.0958,5.0988,5.1003,5.1032,5.1059,5.1076,5.1074,5.104,5.1034,5.1048,5.1061,5.1069,5.1067,5.0863,5.103,5.1029,5.1027,5.1027,5.1026,5.0998,5.1031,5.1033,5.106,5.1065,5.1075,5.1104,5.1093,5.1118,5.1139,5.1118,5.1155,5.1157,5.1176,5.1179,5.1207,5.118,5.12,5.1206,5.1212,5.1221,5.1063,5.121,5.1209,5.1209,5.1209,5.1208,0,5.1154,5.1153,5.1178,5.1195,5.1216,5.1181,5.119,5.1211,5.1244,5.1249,5.1268,5.1303,5.1328,5.1316,5.1339,5.1363,5.1348,5.137,5.1369,5.137,5.1243,5.123,5.1382,5.1382,5.1382,5.1382,5.1382,5.1382,5.1238,5.1293,5.128,5.1336,5.1333,5.1369,5.1378,5.1388,5.1392,5.1432,5.1453,5.1445,5.1444,5.1465,5.1487,5.1483,5.1494,5.1523,5.1513,5.1396,5.1378,5.1362,5.1349,5.1525,5.1525,5.1637,5.1638,5.1639]}]]